K3TXT-1 Edgewater MD US current weather conditions

sailwx.info

Wind from 204 at 0 knots gusting 5

Air temperature 3.9° C
Dewpoint -4.6° C

Last reported at 2019-Dec-11 21:03 UTC.
Time now 2019-Dec-11 21:38 UTC

Location: N 38°57' W 076°33'.
View on Google Maps.

See reports from other nearby stations

  
Tides and Currents Weather Stations Pressure Air Temp Water Temp Dewpoint Dewpoint Depression Visibility Wind Speed Wind Dir Waves Ship Positions
date/time (UTC)wind fromknots sea level pressurealtimeterstation pressurevisibilityair tempwater tempwave heightnotes
2019-Dec-11 21:03 204 0 gusting 5 3.9
2019-Dec-11 20:53 296 2 gusting 6 3.9
2019-Dec-11 20:48 287 3 gusting 8 3.9
2019-Dec-11 20:43 359 3 gusting 8 3.9
2019-Dec-11 20:38 287 4 gusting 7 3.9
2019-Dec-11 20:33 312 2 gusting 6 3.9
2019-Dec-11 20:28 359 2 gusting 6 3.9
2019-Dec-11 20:23 330 3 gusting 7 3.9
2019-Dec-11 20:18 359 3 gusting 7 3.9
2019-Dec-11 20:13 359 3 gusting 6 3.9
2019-Dec-11 20:08 359 3 gusting 6 3.9
2019-Dec-11 20:03 359 3 gusting 7 3.9
2019-Dec-11 19:58 289 4 gusting 9 3.9
2019-Dec-11 19:53 313 4 gusting 11 3.9
2019-Dec-11 19:48 336 4 gusting 11 3.9
2019-Dec-11 19:43 260 4 gusting 9 3.9
2019-Dec-11 19:38 271 2 gusting 7 3.9
2019-Dec-11 19:33 290 2 gusting 6 3.9
2019-Dec-11 19:28 273 3 gusting 7 3.9
2019-Dec-11 19:23 282 3 gusting 7 3.9
2019-Dec-11 19:18 272 3 gusting 7 3.9
2019-Dec-11 19:13 272 3 gusting 7 3.9
2019-Dec-11 19:08 278 2 gusting 6 3.9
2019-Dec-11 19:03 359 2 gusting 6 3.9
2019-Dec-11 18:58 239 3 gusting 7 3.9
2019-Dec-11 18:53 273 3 gusting 9 3.9
2019-Dec-11 18:48 275 3 gusting 9 3.9
2019-Dec-11 18:43 308 2 gusting 8 3.9
2019-Dec-11 18:38 253 1 gusting 8 3.9
2019-Dec-11 18:33 328 2 gusting 6 3.9
2019-Dec-11 18:28 267 3 gusting 7 3.9
2019-Dec-11 18:23 291 3 gusting 7 3.9
2019-Dec-11 18:18 359 3 gusting 8 3.9
2019-Dec-11 18:13 359 3 gusting 8 3.9
2019-Dec-11 18:08 015 3 gusting 6 3.9
2019-Dec-11 18:03 344 4 gusting 9 3.9
2019-Dec-11 17:58 014 4 gusting 9 3.9
2019-Dec-11 17:53 349 3 gusting 8 3.9
2019-Dec-11 17:48 053 4 gusting 10 3.9
2019-Dec-11 17:43 359 4 gusting 10 3.9
2019-Dec-11 17:38 334 3 gusting 10 3.9
2019-Dec-11 17:33 276 4 gusting 10 3.3
2019-Dec-11 17:28 235 4 gusting 9 3.3
2019-Dec-11 17:23 278 4 gusting 9 3.3
2019-Dec-11 17:18 359 4 gusting 11 3.3
2019-Dec-11 17:13 359 4 gusting 11 3.3
2019-Dec-11 17:08 359 4 gusting 8 3.3
2019-Dec-11 17:03 004 4 gusting 9 3.3
2019-Dec-11 16:58 359 4 gusting 9 3.3
2019-Dec-11 16:53 305 3 gusting 7 3.3
2019-Dec-11 16:48 331 4 gusting 10 3.3
2019-Dec-11 16:43 359 4 gusting 10 3.3
2019-Dec-11 16:38 359 4 gusting 7 2.8
2019-Dec-11 16:33 359 4 gusting 11 2.8
2019-Dec-11 16:28 359 4 gusting 11 2.8
2019-Dec-11 16:23 359 4 gusting 8 2.8
2019-Dec-11 16:18 289 3 gusting 8 2.8
2019-Dec-11 16:13 309 3 gusting 7 2.8
2019-Dec-11 16:08 314 3 gusting 7 2.8
2019-Dec-11 16:03 359 3 gusting 8 2.8
2019-Dec-11 15:58 284 4 gusting 9 2.8
2019-Dec-11 15:53 359 4 gusting 9 2.8
2019-Dec-11 15:48 343 4 gusting 11 2.8
2019-Dec-11 15:43 337 5 gusting 11 2.8
2019-Dec-11 15:38 287 4 gusting 11 2.8
2019-Dec-11 15:33 359 3 gusting 8 2.8
2019-Dec-11 15:28 359 3 gusting 8 2.8
2019-Dec-11 15:23 359 3 gusting 7 2.8
2019-Dec-11 15:18 359 3 gusting 7 2.2
2019-Dec-11 15:13 314 3 gusting 10 2.2
2019-Dec-11 15:08 004 3 gusting 10 2.2
2019-Dec-11 15:03 004 2 gusting 10 2.2
2019-Dec-11 14:58 340 2 gusting 7 2.2
2019-Dec-11 14:53 013 3 gusting 12 2.2
2019-Dec-11 14:48 359 4 gusting 12 2.2
2019-Dec-11 14:43 303 3 gusting 10 1.7
2019-Dec-11 14:38 359 2 gusting 6 1.7
2019-Dec-11 14:33 324 2 gusting 6 1.7
2019-Dec-11 14:28 359 3 gusting 6 1.7
2019-Dec-11 14:23 287 3 gusting 10 1.7
2019-Dec-11 14:18 294 2 gusting 10 1.7
2019-Dec-11 14:13 278 2 gusting 6 1.7
2019-Dec-11 14:08 347 2 gusting 6 1.7
2019-Dec-11 14:03 359 2 gusting 5 1.1
2019-Dec-11 13:58 291 1 gusting 5 1.1
2019-Dec-11 13:53 359 1 gusting 5 1.1
2019-Dec-11 13:48 318 1 gusting 5 1.1
2019-Dec-11 13:43 359 2 gusting 6 1.1
2019-Dec-11 13:38 028 1 gusting 6 1.1
2019-Dec-11 13:33 289 1 gusting 5 1.1
2019-Dec-11 13:28 292 1 gusting 4 1.1
2019-Dec-11 13:23 299 1 gusting 4 1.1
2019-Dec-11 13:18 330 1 gusting 5 1.1
2019-Dec-11 13:13 338 1 gusting 5 1.1
2019-Dec-11 13:08 359 1 gusting 5 1.1
2019-Dec-11 13:03 359 1 gusting 8 1.1
2019-Dec-11 12:58 321 1 gusting 8 1.1
2019-Dec-11 12:53 339 0 gusting 6 1.1
2019-Dec-11 12:48 332 1 gusting 6 1.1
2019-Dec-11 12:43 359 1 gusting 6 1.1
2019-Dec-11 12:38 310 1 gusting 4 1.1
2019-Dec-11 12:33 314 1 gusting 3 1.1
2019-Dec-11 12:28 305 1 gusting 3 1.1
2019-Dec-11 12:23 287 0 gusting 3 1.1
2019-Dec-11 12:18 301 0 gusting 3 1.1
2019-Dec-11 12:13 359 0 gusting 2 1.1
2019-Dec-11 12:08 255 0 gusting 3 1.1
2019-Dec-11 12:03 261 0 gusting 3 1.1
2019-Dec-11 11:58 299 0 gusting 3 1.1
2019-Dec-11 11:53 301 1 gusting 3 1.1
2019-Dec-11 11:48 245 1 gusting 4 1.1
2019-Dec-11 11:43 253 1 gusting 4 1.1
2019-Dec-11 11:38 258 1 gusting 6 1.1
2019-Dec-11 11:33 359 2 gusting 6 1.1
2019-Dec-11 11:28 015 2 gusting 6 1.1
2019-Dec-11 11:23 346 1 gusting 6 1.1
2019-Dec-11 11:18 359 2 gusting 6 1.1
2019-Dec-11 11:13 333 1 gusting 6 1.1
2019-Dec-11 11:08 299 1 gusting 6 1.1
2019-Dec-11 11:03 359 0 gusting 3 1.1
2019-Dec-11 10:58 294 1 gusting 5 1.1
2019-Dec-11 10:53 312 2 gusting 5 0.6
2019-Dec-11 10:47 291 1 gusting 5 0.6
2019-Dec-11 10:43 308 0 gusting 4 0.6
2019-Dec-11 10:38 316 1 gusting 5 0.6
2019-Dec-11 10:33 272 1 gusting 5 0.6
2019-Dec-11 10:28 359 1 gusting 5 0.6
2019-Dec-11 10:23 325 1 gusting 6 0.6
2019-Dec-11 10:17 291 1 gusting 6 0.6
2019-Dec-11 10:13 324 1 gusting 6 0.6
2019-Dec-11 10:08 349 1 gusting 6 0.6
2019-Dec-11 10:03 359 1 gusting 6 0.6
2019-Dec-11 09:58 359 2 gusting 9 0.6
2019-Dec-11 09:52 359 3 gusting 9 0.6
2019-Dec-11 09:47 303 3 gusting 7 0.6
2019-Dec-11 09:42 289 3 gusting 8 0.6
2019-Dec-11 09:37 337 2 gusting 8 0.6
2019-Dec-11 09:32 330 2 gusting 8 0.6
2019-Dec-11 09:27 347 2 gusting 8 0.6
2019-Dec-11 09:22 319 2 gusting 6 0.6
2019-Dec-11 09:17 326 2 gusting 6 0.6
2019-Dec-11 09:12 004 2 gusting 6 0.6
2019-Dec-11 09:08 339 3 gusting 7 0.6
2019-Dec-11 09:02 359 4 gusting 7 0.6
2019-Dec-11 08:57 331 4 gusting 7 0.6
2019-Dec-11 08:52 342 4 gusting 13 0.6
2019-Dec-11 08:47 018 4 gusting 13 0.6
2019-Dec-11 08:42 008 4 gusting 11 1.1
2019-Dec-11 08:37 345 6 gusting 11 1.1
2019-Dec-11 08:32 035 6 gusting 12 1.1
2019-Dec-11 08:27 349 6 gusting 13 1.7
2019-Dec-11 08:22 354 6 gusting 13 1.7
2019-Dec-11 08:17 333 5 gusting 11 1.7
2019-Dec-11 08:12 354 5 gusting 11 1.7
2019-Dec-11 08:07 359 6 gusting 14 1.7
2019-Dec-11 08:02 336 6 gusting 14 1.7
2019-Dec-11 07:57 029 6 gusting 14 1.7
2019-Dec-11 07:52 344 5 gusting 14 1.7
2019-Dec-11 07:47 009 4 gusting 10 2.2
2019-Dec-11 07:42 349 3 gusting 10 2.2
2019-Dec-11 07:37 340 3 gusting 6 2.2
2019-Dec-11 07:32 359 2 gusting 7 2.2
2019-Dec-11 07:27 317 3 gusting 7 2.2
2019-Dec-11 07:22 318 2 gusting 6 2.2
2019-Dec-11 07:17 008 2 gusting 9 2.2
2019-Dec-11 07:12 359 3 gusting 9 2.2
2019-Dec-11 07:07 016 3 gusting 7 2.2
2019-Dec-11 07:02 031 4 gusting 8 2.2
2019-Dec-11 06:57 012 4 gusting 8 2.2
2019-Dec-11 06:52 018 4 gusting 12 2.2
2019-Dec-11 06:47 326 4 gusting 12 2.2
2019-Dec-11 06:42 359 5 gusting 13 2.2
2019-Dec-11 06:37 359 6 gusting 15 2.2
2019-Dec-11 06:32 359 6 gusting 15 2.8
2019-Dec-11 06:27 359 5 gusting 12 2.8
2019-Dec-11 06:22 324 4 gusting 10 2.8
2019-Dec-11 06:17 359 4 gusting 10 2.8
2019-Dec-11 06:12 008 4 gusting 9 2.8
2019-Dec-11 06:07 336 5 gusting 12 3.3
2019-Dec-11 06:02 026 5 gusting 12 3.3
2019-Dec-11 05:57 015 5 gusting 10 3.3
2019-Dec-11 05:52 018 5 gusting 10 3.3
2019-Dec-11 05:47 027 4 gusting 11 3.3
2019-Dec-11 05:42 343 4 gusting 11 3.9
2019-Dec-11 05:37 359 5 gusting 10 3.9
2019-Dec-11 05:32 354 5 gusting 10 3.9
2019-Dec-11 05:27 038 5 gusting 13 4.4
2019-Dec-11 05:22 359 5 gusting 13 4.4
2019-Dec-11 05:17 359 4 gusting 13 4.4
2019-Dec-11 05:12 009 5 gusting 12 4.4
2019-Dec-11 05:07 331 6 gusting 12 4.4
2019-Dec-11 05:02 354 6 gusting 12 5.0
2019-Dec-11 04:57 051 6 gusting 14 5.0
2019-Dec-11 04:52 359 6 gusting 14 5.0
2019-Dec-11 04:47 359 5 gusting 13 5.6
2019-Dec-11 04:42 315 4 gusting 9 5.6
2019-Dec-11 04:37 354 3 gusting 8 5.6
2019-Dec-11 04:32 341 3 gusting 6 5.6
2019-Dec-11 04:27 009 3 gusting 7 5.6
2019-Dec-11 04:22 347 3 gusting 7 5.6
2019-Dec-11 04:17 013 4 gusting 10 5.6
2019-Dec-11 04:12 004 4 gusting 10 5.6
2019-Dec-11 04:07 004 4 gusting 9 5.6
2019-Dec-11 04:02 359 4 gusting 9 5.6
2019-Dec-11 03:57 359 5 gusting 15 6.1
2019-Dec-11 03:52 321 6 gusting 19 6.1
2019-Dec-11 03:47 328 6 gusting 19 6.1
2019-Dec-11 03:42 016 4 gusting 12 6.7
2019-Dec-11 03:37 104 5 gusting 12 6.7
2019-Dec-11 03:32 345 5 gusting 11 6.7
2019-Dec-11 03:27 359 5 gusting 10 6.7
2019-Dec-11 03:22 359 4 gusting 12 6.7
2019-Dec-11 03:17 014 4 gusting 12 6.7
2019-Dec-11 03:12 339 5 gusting 12 6.7
2019-Dec-11 03:07 035 5 gusting 12 7.2
2019-Dec-11 03:02 312 3 gusting 10 7.2
2019-Dec-11 02:57 004 3 gusting 9 7.2
2019-Dec-11 02:52 339 3 gusting 9 7.2
2019-Dec-11 02:47 359 3 gusting 7 7.2
2019-Dec-11 02:42 012 4 gusting 9 7.8
2019-Dec-11 02:37 347 5 gusting 10 7.8
2019-Dec-11 02:32 359 4 gusting 13 7.8
2019-Dec-11 02:27 359 4 gusting 13 7.8
2019-Dec-11 02:22 004 3 gusting 8 7.8
2019-Dec-11 02:17 359 4 gusting 12 7.8
2019-Dec-11 02:12 304 4 gusting 12 7.8
2019-Dec-11 02:07 032 3 gusting 9 8.3
2019-Dec-11 02:02 354 3 gusting 8 8.3
2019-Dec-11 01:57 339 3 gusting 7 8.3
2019-Dec-11 01:52 335 3 gusting 7 8.3
2019-Dec-11 01:47 341 2 gusting 7 8.3
2019-Dec-11 01:42 359 1 gusting 5 8.3
2019-Dec-11 01:37 359 2 gusting 6 8.3
2019-Dec-11 01:32 325 2 gusting 6 8.3
2019-Dec-11 01:27 332 2 gusting 6 8.3
2019-Dec-11 01:22 323 4 gusting 11 8.3
2019-Dec-11 01:17 339 6 gusting 13 8.9
2019-Dec-11 01:12 008 6 gusting 13 8.9
2019-Dec-11 01:07 339 6 gusting 13 8.9
2019-Dec-11 01:02 010 6 gusting 13 8.9
2019-Dec-11 00:57 025 6 gusting 13 8.9
2019-Dec-11 00:52 359 5 gusting 12 9.4
2019-Dec-11 00:47 343 4 gusting 12 9.4
2019-Dec-11 00:42 319 4 gusting 13 9.4
2019-Dec-11 00:37 332 5 gusting 16 10.0
2019-Dec-11 00:32 046 6 gusting 16 10.0
2019-Dec-11 00:27 335 4 gusting 13 10.0
2019-Dec-11 00:22 333 2 gusting 8 10.6
2019-Dec-11 00:17 308 3 gusting 10 10.6
2019-Dec-11 00:12 359 4 gusting 13 10.6
2019-Dec-11 00:07 337 4 gusting 13 10.6
2019-Dec-11 00:02 359 4 gusting 9 10.6
2019-Dec-10 23:57 010 3 gusting 9 11.1
2019-Dec-10 23:52 354 4 gusting 10 11.1
2019-Dec-10 23:47 359 5 gusting 10 11.1
2019-Dec-10 23:42 359 4 gusting 10 11.1
2019-Dec-10 23:37 030 1 gusting 8 11.1
2019-Dec-10 23:32 312 0 gusting 2 11.7
2019-Dec-10 23:27 251 11.7
2019-Dec-10 23:22 325 11.7
2019-Dec-10 23:17 328 0 gusting 5 11.7
2019-Dec-10 23:12 328 1 gusting 5 11.7
2019-Dec-10 23:07 335 2 gusting 6 11.7
2019-Dec-10 23:02 332 2 gusting 6 11.7
2019-Dec-10 22:57 359 1 gusting 6 11.7
2019-Dec-10 22:52 313 2 gusting 8 11.7
2019-Dec-10 22:47 319 2 gusting 8 12.2
2019-Dec-10 22:42 268 2 gusting 7 12.2
2019-Dec-10 22:37 359 2 gusting 7 12.2
2019-Dec-10 22:32 359 2 gusting 7 12.2
2019-Dec-10 22:27 308 2 gusting 6 12.2
2019-Dec-10 22:22 359 1 gusting 6 12.2
2019-Dec-10 22:17 318 1 gusting 5 12.2
2019-Dec-10 22:12 287 1 gusting 6 12.8
2019-Dec-10 22:07 303 0 gusting 6 12.8
2019-Dec-10 22:02 320 0 gusting 3 12.8
2019-Dec-10 21:57 335 0 gusting 2 12.8
2019-Dec-10 21:52 359 0 gusting 3 12.8
2019-Dec-10 21:47 335 0 gusting 6 12.8
2019-Dec-10 21:42 318 0 gusting 6 12.8
2019-Dec-10 21:37 359 0 gusting 3 12.8
2019-Dec-10 21:32 347 0 gusting 3 12.8
2019-Dec-10 21:27 312 1 gusting 6 13.3
2019-Dec-10 21:22 326 1 gusting 6 13.3
2019-Dec-10 21:17 043 1 gusting 6 13.3
2019-Dec-10 21:12 299 2 gusting 6 13.3
2019-Dec-10 21:07 359 2 gusting 7 13.3
2019-Dec-10 21:02 326 2 gusting 7 13.9
2019-Dec-10 20:57 359 1 gusting 6 13.9
2019-Dec-10 20:52 282 1 gusting 6 13.9
2019-Dec-10 20:47 312 1 gusting 5 13.9
2019-Dec-10 20:42 347 0 gusting 5 14.4
2019-Dec-10 20:37 316 1 gusting 4 14.4
2019-Dec-10 20:32 285 1 gusting 6 14.4
2019-Dec-10 20:27 345 2 gusting 6 14.4
2019-Dec-10 20:22 312 2 gusting 7 14.4
2019-Dec-10 20:17 359 2 gusting 7 15.0
2019-Dec-10 20:12 359 1 gusting 6 15.0
2019-Dec-10 20:07 359 0 gusting 4 15.6
2019-Dec-10 20:02 312 15.6
2019-Dec-10 19:57 312 0 gusting 3 15.6
2019-Dec-10 19:52 305 0 gusting 3 15.6
2019-Dec-10 19:47 263 1 gusting 4 15.6
2019-Dec-10 19:42 235 0 gusting 4 15.6
2019-Dec-10 19:37 285 0 gusting 3 15.6
2019-Dec-10 19:32 286 1 gusting 5 15.6
2019-Dec-10 19:27 289 1 gusting 5 15.6
2019-Dec-10 19:22 263 1 gusting 4 15.6
2019-Dec-10 19:17 273 0 gusting 4 15.6
2019-Dec-10 19:12 245 1 gusting 4 15.6
2019-Dec-10 19:07 225 1 gusting 5 15.6
2019-Dec-10 19:02 258 1 gusting 5 15.6
2019-Dec-10 18:57 267 1 gusting 5 15.6
2019-Dec-10 18:52 274 1 gusting 5 15.6
2019-Dec-10 18:47 251 2 gusting 6 15.6
2019-Dec-10 18:42 252 2 gusting 6 15.6
2019-Dec-10 18:37 253 2 gusting 6 15.6
2019-Dec-10 18:32 359 2 gusting 5 15.6
2019-Dec-10 18:27 270 2 gusting 5 15.6
2019-Dec-10 18:22 289 1 gusting 5 15.6
2019-Dec-10 18:17 359 1 gusting 4 15.6
2019-Dec-10 18:12 293 2 gusting 6 15.6
2019-Dec-10 18:07 276 1 gusting 6 15.6
2019-Dec-10 18:02 359 1 gusting 3 15.6
2019-Dec-10 17:57 266 0 gusting 3 15.6
2019-Dec-10 17:52 306 1 gusting 6 15.6
2019-Dec-10 17:47 264 1 gusting 6 15.6
2019-Dec-10 17:42 270 1 gusting 5 15.6
2019-Dec-10 17:37 223 2 gusting 6 15.6
2019-Dec-10 17:32 239 2 gusting 6 15.6
2019-Dec-10 17:27 298 1 gusting 6 15.6
2019-Dec-10 17:22 359 1 gusting 5 15.6
2019-Dec-10 17:17 268 1 gusting 3 15.6
2019-Dec-10 17:12 275 0 gusting 3 15.6
2019-Dec-10 17:07 269 1 gusting 6 15.6
2019-Dec-10 17:02 271 2 gusting 6 15.6
2019-Dec-10 16:57 265 1 gusting 6 15.6
2019-Dec-10 16:52 256 2 gusting 7 15.6
2019-Dec-10 16:47 359 3 gusting 7 15.6
2019-Dec-10 16:42 265 3 gusting 7 15.6
2019-Dec-10 16:37 268 2 gusting 6 15.6
2019-Dec-10 16:32 236 1 gusting 6 15.6
2019-Dec-10 16:27 218 1 gusting 6 15.6
2019-Dec-10 16:22 257 2 gusting 6 15.6
2019-Dec-10 16:17 253 2 gusting 7 15.6
2019-Dec-10 16:12 252 2 gusting 7 15.6
2019-Dec-10 16:07 245 2 gusting 7 15.6
2019-Dec-10 16:02 215 1 gusting 7 15.0
2019-Dec-10 15:57 359 1 gusting 5 15.0
2019-Dec-10 15:52 254 2 gusting 6 15.0
2019-Dec-10 15:47 262 1 gusting 6 15.0
2019-Dec-10 15:42 311 1 gusting 4 15.0
2019-Dec-10 15:37 260 2 gusting 6 15.0
2019-Dec-10 15:32 359 1 gusting 6 15.6
2019-Dec-10 15:27 258 1 gusting 4 15.6
2019-Dec-10 15:22 359 1 gusting 4 15.6
2019-Dec-10 15:17 228 1 gusting 6 15.6
2019-Dec-10 15:12 222 2 gusting 9 15.6
2019-Dec-10 15:07 250 3 gusting 9 15.6
2019-Dec-10 15:02 359 3 gusting 7 15.6
2019-Dec-10 14:57 259 3 gusting 7 15.6
2019-Dec-10 14:52 206 3 gusting 9 15.6
2019-Dec-10 14:47 359 4 gusting 9 15.6
2019-Dec-10 14:42 270 4 gusting 9 15.6
2019-Dec-10 14:37 223 4 gusting 13 15.6
2019-Dec-10 14:32 261 5 gusting 13 15.6
2019-Dec-10 14:27 291 4 gusting 10 15.6
2019-Dec-10 14:22 267 5 gusting 11 15.6
2019-Dec-10 14:17 210 4 gusting 11 15.0
2019-Dec-10 14:12 254 4 gusting 9 15.0
2019-Dec-10 14:07 236 3 gusting 9 15.0
2019-Dec-10 14:02 359 3 gusting 6 15.0
2019-Dec-10 13:57 243 3 gusting 6 15.0
2019-Dec-10 13:52 212 5 gusting 11 15.0
2019-Dec-10 13:47 277 5 gusting 11 15.0
2019-Dec-10 13:42 359 5 gusting 9 15.0
2019-Dec-10 13:37 222 5 gusting 13 15.0
2019-Dec-10 13:32 240 5 gusting 13 15.0
2019-Dec-10 13:27 359 5 gusting 13 15.0
2019-Dec-10 13:22 226 4 gusting 13 14.4
2019-Dec-10 13:17 251 4 gusting 11 14.4
2019-Dec-10 13:12 242 4 gusting 11 14.4
2019-Dec-10 13:07 258 4 gusting 11 14.4
2019-Dec-10 13:02 228 3 gusting 7 14.4
2019-Dec-10 12:57 259 2 gusting 6 14.4
2019-Dec-10 12:52 237 3 gusting 8 14.4
2019-Dec-10 12:47 226 3 gusting 8 14.4
2019-Dec-10 12:42 239 3 gusting 8 14.4
2019-Dec-10 12:37 359 3 gusting 8 13.9
2019-Dec-10 12:32 359 2 gusting 7 13.9
2019-Dec-10 12:27 179 2 gusting 7 13.9
2019-Dec-10 12:22 235 1 gusting 11 13.9
2019-Dec-10 12:17 359 1 gusting 11 13.9
2019-Dec-10 12:12 256 1 gusting 8 13.9
2019-Dec-10 12:07 359 1 gusting 8 13.9
2019-Dec-10 12:02 359 2 gusting 9 13.9
2019-Dec-10 11:57 239 3 gusting 9 13.9
2019-Dec-10 11:52 272 2 gusting 8 13.9
2019-Dec-10 11:47 267 2 gusting 7 13.9
2019-Dec-10 11:42 241 3 gusting 7 13.9
2019-Dec-10 11:37 359 4 gusting 11 13.9
2019-Dec-10 11:32 245 4 gusting 11 13.9
2019-Dec-10 11:27 231 4 gusting 11 13.9
2019-Dec-10 11:22 247 3 gusting 11 13.9
2019-Dec-10 11:17 219 3 gusting 9 13.9
2019-Dec-10 11:12 183 4 gusting 9 13.9
2019-Dec-10 11:07 359 4 gusting 11 13.9
2019-Dec-10 11:02 254 4 gusting 11 13.9
2019-Dec-10 10:57 253 4 gusting 10 13.9
2019-Dec-10 10:52 273 3 gusting 10 13.9
2019-Dec-10 10:47 359 4 gusting 8 13.9
2019-Dec-10 10:42 249 4 gusting 8 13.9
2019-Dec-10 10:37 272 3 gusting 7 13.9
2019-Dec-10 10:32 228 3 gusting 11 13.3
2019-Dec-10 10:27 359 4 gusting 11 13.9
2019-Dec-10 10:22 307 4 gusting 12 13.3
2019-Dec-10 10:17 359 4 gusting 12 13.3
2019-Dec-10 10:12 359 3 gusting 10 13.3
2019-Dec-10 10:07 231 3 gusting 10 13.3
2019-Dec-10 10:02 255 4 gusting 10 13.3
2019-Dec-10 09:57 210 4 gusting 9 13.3
2019-Dec-10 09:52 268 4 gusting 9 13.3
2019-Dec-10 09:47 268 4 gusting 10 13.3
2019-Dec-10 09:42 274 2 gusting 10 13.3
2019-Dec-10 09:37 260 3 gusting 7 13.3
2019-Dec-10 09:32 359 3 gusting 7 13.3
2019-Dec-10 09:27 271 3 gusting 9 13.3
2019-Dec-10 09:22 248 4 gusting 13 13.3
2019-Dec-10 09:17 224 4 gusting 13 13.3
2019-Dec-10 09:12 279 3 gusting 10 13.3
2019-Dec-10 09:07 181 3 gusting 8 13.3
2019-Dec-10 09:02 270 4 gusting 9 13.3
2019-Dec-10 08:57 270 4 gusting 9 12.8
2019-Dec-10 08:52 224 3 gusting 9 12.8
2019-Dec-10 08:47 222 2 gusting 9 12.8
2019-Dec-10 08:42 241 3 gusting 9 12.8
2019-Dec-10 08:37 312 4 gusting 9 12.8
2019-Dec-10 08:32 359 3 gusting 10 12.8
2019-Dec-10 08:27 234 2 gusting 10 12.8
2019-Dec-10 08:22 224 2 gusting 7 12.8
2019-Dec-10 08:17 253 3 gusting 8 12.8
2019-Dec-10 08:12 258 3 gusting 11 12.8
2019-Dec-10 08:07 274 3 gusting 11 12.8
2019-Dec-10 08:02 260 3 gusting 8 12.8
2019-Dec-10 07:56 224 3 gusting 7 12.8
2019-Dec-10 07:51 263 4 gusting 11 12.8
2019-Dec-10 07:46 235 4 gusting 11 12.8
2019-Dec-10 07:41 239 3 gusting 6 12.8
2019-Dec-10 07:36 244 2 gusting 7 12.8
2019-Dec-10 07:31 359 1 gusting 7 12.8
2019-Dec-10 07:26 226 1 gusting 6 12.8
2019-Dec-10 07:21 256 1 gusting 6 12.8
2019-Dec-10 07:16 243 2 gusting 9 12.8
2019-Dec-10 07:11 359 3 gusting 9 12.8
2019-Dec-10 07:06 359 3 gusting 9 12.8
2019-Dec-10 07:01 234 4 gusting 9 12.8
2019-Dec-10 06:56 213 4 gusting 9 12.2
2019-Dec-10 06:51 359 4 gusting 9 12.2
2019-Dec-10 06:46 241 3 gusting 7 12.2
2019-Dec-10 06:41 174 3 gusting 7 12.2
2019-Dec-10 06:36 274 2 gusting 7 12.2
2019-Dec-10 06:31 266 2 gusting 7 12.2
2019-Dec-10 06:26 238 3 gusting 8 12.2
2019-Dec-10 06:21 359 3 gusting 8 12.2
2019-Dec-10 06:16 261 3 gusting 6 12.2
2019-Dec-10 06:11 359 5 gusting 11 12.2
2019-Dec-10 06:06 276 4 gusting 11 12.2
2019-Dec-10 06:01 259 3 gusting 9 12.2
2019-Dec-10 05:56 256 3 gusting 9 12.2
2019-Dec-10 05:51 240 4 gusting 9 12.2
2019-Dec-10 05:46 268 5 gusting 13 12.2
2019-Dec-10 05:41 359 5 gusting 13 12.2
2019-Dec-10 05:36 198 5 gusting 14 12.2
2019-Dec-10 05:31 249 5 gusting 14 12.2
2019-Dec-10 05:26 269 4 gusting 13 12.2
2019-Dec-10 05:21 359 5 gusting 11 12.2
2019-Dec-10 05:16 289 4 gusting 13 12.2
2019-Dec-10 05:11 235 5 gusting 13 12.2
2019-Dec-10 05:06 224 6 gusting 15 12.2
2019-Dec-10 05:01 247 6 gusting 15 12.2
2019-Dec-10 04:56 359 5 gusting 13 12.2
2019-Dec-10 04:51 359 6 gusting 14 12.2
2019-Dec-10 04:46 297 6 gusting 14 12.2
2019-Dec-10 04:41 232 6 gusting 15 12.2
2019-Dec-10 04:36 209 6 gusting 15 12.8
2019-Dec-10 04:31 359 7 gusting 14 12.8
2019-Dec-10 04:26 250 6 gusting 18 12.8
2019-Dec-10 04:21 233 5 gusting 18 12.8
2019-Dec-10 04:16 359 6 gusting 14 12.8
2019-Dec-10 04:11 215 6 gusting 19 12.8
2019-Dec-10 04:06 227 6 gusting 19 12.8
2019-Dec-10 04:01 248 6 gusting 18 12.8
2019-Dec-10 03:56 291 7 gusting 19 13.3
2019-Dec-10 03:51 268 7 gusting 19 13.3
2019-Dec-10 03:46 256 8 gusting 20 13.3
2019-Dec-10 03:41 236 8 gusting 20 13.3
2019-Dec-10 03:36 252 7 gusting 18 13.3
2019-Dec-10 03:31 241 7 gusting 19 13.3
2019-Dec-10 03:26 228 6 gusting 19 13.3
2019-Dec-10 03:21 216 5 gusting 13 13.3
2019-Dec-10 03:16 359 6 gusting 14 13.3
2019-Dec-10 03:11 260 6 gusting 21 12.8
2019-Dec-10 03:06 239 6 gusting 21 12.8
2019-Dec-10 03:01 256 6 gusting 13 12.8
2019-Dec-10 02:56 270 6 gusting 13 12.8
2019-Dec-10 02:51 237 6 gusting 14 12.8
2019-Dec-10 02:46 243 6 gusting 14 12.8
2019-Dec-10 02:41 216 6 gusting 22 12.8
2019-Dec-10 02:36 233 6 gusting 22 12.8
2019-Dec-10 02:31 230 4 gusting 13 12.2
2019-Dec-10 02:26 359 5 gusting 13 12.2
2019-Dec-10 02:21 264 4 gusting 13 12.2
2019-Dec-10 02:16 252 5 gusting 14 12.2
2019-Dec-10 02:11 274 5 gusting 15 12.2
2019-Dec-10 02:06 254 5 gusting 15 11.7
2019-Dec-10 02:01 228 4 gusting 10 11.7
2019-Dec-10 01:56 359 4 gusting 8 11.7
2019-Dec-10 01:51 271 4 gusting 8 11.7
2019-Dec-10 01:46 241 4 gusting 8 11.7
2019-Dec-10 01:41 359 4 gusting 9 11.7
2019-Dec-10 01:36 201 4 gusting 12 11.7
2019-Dec-10 01:31 237 3 gusting 12 11.7
2019-Dec-10 01:26 359 2 gusting 6 11.1
2019-Dec-10 01:21 359 2 gusting 6 11.1
2019-Dec-10 01:16 249 2 gusting 6 11.1
2019-Dec-10 01:11 234 2 gusting 5 11.1
2019-Dec-10 01:06 237 2 gusting 7 11.1
2019-Dec-10 01:01 258 3 gusting 7 11.1
2019-Dec-10 00:56 359 2 gusting 6 11.1
2019-Dec-10 00:51 256 2 gusting 6 11.1
2019-Dec-10 00:46 270 2 gusting 5 11.1
2019-Dec-10 00:41 260 1 gusting 4 10.6
2019-Dec-10 00:36 266 1 gusting 6 10.6
2019-Dec-10 00:31 197 2 gusting 6 10.6
2019-Dec-10 00:26 226 2 gusting 6 10.6
2019-Dec-10 00:21 246 2 gusting 6 10.6
2019-Dec-10 00:16 266 1 gusting 5 10.6
2019-Dec-10 00:11 359 1 gusting 6 10.6
2019-Dec-10 00:06 222 1 gusting 6 10.6
2019-Dec-10 00:01 233 0 gusting 3 10.6
2019-Dec-09 23:56 235 1 gusting 6 10.6
2019-Dec-09 23:51 199 2 gusting 6 10.0
2019-Dec-09 23:46 210 2 gusting 6 10.0
2019-Dec-09 23:41 245 1 gusting 6 10.0
2019-Dec-09 23:36 235 1 gusting 5 10.0
2019-Dec-09 23:31 237 1 gusting 6 10.0
2019-Dec-09 23:26 231 1 gusting 6 9.4
2019-Dec-09 23:21 226 1 gusting 6 9.4
2019-Dec-09 23:16 150 0 gusting 6 9.4
2019-Dec-09 23:11 221 0 gusting 3 9.4
2019-Dec-09 23:06 213 9.4
2019-Dec-09 23:01 171 9.4
2019-Dec-09 22:56 171 9.4
2019-Dec-09 22:51 177 9.4
2019-Dec-09 22:46 359 9.4
2019-Dec-09 22:41 174 9.4
2019-Dec-09 22:36 170 9.4
2019-Dec-09 22:31 174 0 gusting 2 9.4
2019-Dec-09 22:26 170 0 gusting 2 9.4
2019-Dec-09 22:21 172 0 gusting 1 8.9
2019-Dec-09 22:16 172 0 gusting 1 9.4
2019-Dec-09 22:11 177 0 gusting 3 9.4
2019-Dec-09 22:06 176 0 gusting 3 9.4
2019-Dec-09 22:01 172 9.4
2019-Dec-09 21:56 172 9.4
2019-Dec-09 21:51 359 9.4
2019-Dec-09 21:46 166 9.4
2019-Dec-09 21:41 170 9.4
2019-Dec-09 21:36 166 9.4
2019-Dec-09 21:31 166 0 gusting 3 9.4
2019-Dec-09 21:26 166 0 gusting 3 9.4
2019-Dec-09 21:21 223 0 gusting 1 9.4
2019-Dec-09 21:16 359 0 gusting 1 9.4
2019-Dec-09 21:11 224 9.4
2019-Dec-09 21:06 220 9.4
2019-Dec-09 21:01 223 9.4